Погода в Глушково

Россия / Вологодская область     60°01′44″N   37°55′20″E
темп.,
°C
ветер,
м/с
пор.,
м/с
влажн.,
%
обл.,
%
осадки,
мм/ч
давл.,
гПа
погр.,
м
11 мая, вт
вт1100:00+7ю3107160 0.0 1027213
03:00+5ю3977100 0.0 1028152
06:00+7ю38746 0.0 1029203
09:00+13ююз465782 0.0 1029431
12:00+17ююз45496 0.0 1029877
15:00+19ююз344817 0.0 10281014
18:00+17ю35604 0.0 1028505
21:00+11ю35780 0.0 102874
12 мая, ср
ср1200:00+9ю24805 0.0 102960
03:00+8ю22855 0.0 102927
06:00+10ю23790 0.0 102990
09:00+16ююв23570 0.0 1029434
12:00+19ююв23484 0.0 1028899
15:00+21ююв12470 0.0 10261126
18:00+21юв13590 0.0 1025769
21:00+14вюв24812 0.0 102458
13 мая, чт
чт1300:00+13вюв26865 0.0 102497
03:00+12вюв37934 0.0 1024125
06:00+14юв398536 0.0 1023280
09:00+18ююв48666 0.0 1023815
12:00+21юв58545 0.0 10211302
15:00+22юв485929 0.6 10191812
18:00+21вюв485930 0.3 10171250
21:00+15ююв3886100 0.6 1016238
14 мая, пт
пт1400:00+14ююв2696100 0.4 1015226
03:00+13ююз4895100 0.8 1016493
06:00+12ююз389537 0.0 1016392
09:00+15ююз46735 0.0 1017784
12:00+18ю475777 0.1 10161674
15:00+18ююз366479 0.4 10161370
18:00+17ю367365 0.3 1015695
21:00+14ю399043 0.8 1015298
15 мая, сб
сб1500:00+13ююв259592 0.4 1015146
03:00+12юв25975 0.9 101498
06:00+13юв269499 0.0 1013199
09:00+17юв368050 0.0 1012545
12:00+20ююв456840 0.1 10111081
15:00+22ю466489 0.8 10101113
18:00+20ююв378094 2.4 1008265
21:00+16вюв4109695 8.1 1005411